• In Russia
  • List of Countries
  • For 7 days
  • Water Temperature
  • Satellite Maps
  • Weather Map
  • Weather Widgets
  • user-avatar
    Login

    Hourly Weather Innsbruck

    Today, 21 November, Tuesday

    Time Temperature Precipitation Wind Pressure Humidity
    00:00 -6°C° 0.1 mm 2 mps 593 mmHg 82%
    01:00 -5°C° 0 mm 2 mps 593 mmHg 83%
    02:00 -5°C° 0.5 mm 2 mps 593 mmHg 85%
    03:00 -5°C° 0.5 mm 2 mps 593 mmHg 88%
    04:00 -5°C° 0.5 mm 2 mps 593 mmHg 90%
    05:00 -4°C° 0.5 mm 2 mps 593 mmHg 91%
    06:00 -4°C° 0.5 mm 2 mps 594 mmHg 91%
    07:00 -4°C° 0.5 mm 2 mps 594 mmHg 92%
    08:00 -3°C° 0.3 mm 2 mps 594 mmHg 92%
    09:00 -3°C° 0.3 mm 2 mps 594 mmHg 91%
    10:00 -2°C° 0.3 mm 2 mps 595 mmHg 91%
    11:00 -1°C° 0.2 mm 2 mps 595 mmHg 91%
    12:00 -1°C° 0.2 mm 2 mps 595 mmHg 91%
    13:00 +1°C° 0.2 mm 2 mps 595 mmHg 92%
    14:00 +1°C° 0.2 mm 2 mps 595 mmHg 92%
    15:00 -1°C° 0.2 mm 2 mps 595 mmHg 91%
    16:00 -1°C° 0.2 mm 2 mps 594 mmHg 91%
    17:00 -2°C° 0 mm 2 mps 594 mmHg 91%
    18:00 -3°C° 0 mm 2 mps 594 mmHg 90%
    19:00 -4°C° 0 mm 2 mps 594 mmHg 90%
    20:00 -4°C° 0 mm 2 mps 594 mmHg 88%
    21:00 -4°C° 0 mm 2 mps 594 mmHg 87%
    22:00 -4°C° 0 mm 2 mps 594 mmHg 86%
    23:00 -4°C° 0 mm 2 mps 593 mmHg 84%

    Tomorrow, 22 November, Wednesday

    Time Temperature Precipitation Wind Pressure Humidity
    00:00 -5°C° 0 mm 2 mps 593 mmHg 82%
    01:00 -5°C° 0 mm 2 mps 593 mmHg 80%
    02:00 -5°C° 0 mm 2 mps 593 mmHg 78%
    03:00 -5°C° 0 mm 2 mps 593 mmHg 76%
    04:00 -5°C° 0 mm 2 mps 593 mmHg 74%
    05:00 -5°C° 0 mm 2 mps 593 mmHg 73%
    06:00 -5°C° 0 mm 2 mps 593 mmHg 71%
    07:00 -5°C° 0 mm 2 mps 593 mmHg 69%
    08:00 -4°C° 0 mm 2 mps 593 mmHg 71%
    09:00 -2°C° 0 mm 2 mps 594 mmHg 72%
    10:00 +1°C° 0 mm 2 mps 595 mmHg 73%
    11:00 +2°C° 0 mm 2 mps 595 mmHg 77%
    12:00 +3°C° 0 mm 1 mps 595 mmHg 81%
    13:00 +4°C° 0 mm 1 mps 595 mmHg 85%
    14:00 +2°C° 0 mm 2 mps 595 mmHg 82%
    15:00 +1°C° 0 mm 2 mps 594 mmHg 80%
    16:00 -1°C° 0 mm 2 mps 594 mmHg 77%
    17:00 -2°C° 0 mm 2 mps 593 mmHg 77%
    18:00 -3°C° 0 mm 2 mps 593 mmHg 77%
    19:00 -4°C° 0 mm 2 mps 593 mmHg 77%
    20:00 -5°C° 0 mm 2 mps 593 mmHg 77%
    21:00 -6°C° 0 mm 3 mps 593 mmHg 78%
    22:00 -6°C° 0 mm 3 mps 593 mmHg 78%
    23:00 -6°C° 0 mm 3 mps 593 mmHg 78%

    Day after tomorrow, 23 November, Thursday

    Time Temperature Precipitation Wind Pressure Humidity
    00:00 -6°C° 0 mm 3 mps 593 mmHg 79%
    01:00 -6°C° 0 mm 3 mps 592 mmHg 80%
    02:00 -6°C° 0 mm 3 mps 592 mmHg 79%
    03:00 -6°C° 0 mm 3 mps 592 mmHg 79%
    04:00 -6°C° 0 mm 3 mps 592 mmHg 79%
    05:00 -6°C° 0 mm 3 mps 592 mmHg 78%
    06:00 -5°C° 0 mm 2 mps 592 mmHg 77%
    07:00 -6°C° 0 mm 2 mps 593 mmHg 76%
    08:00 -4°C° 0 mm 2 mps 593 mmHg 75%
    09:00 -2°C° 0 mm 2 mps 594 mmHg 74%
    10:00 +1°C° 0 mm 1 mps 595 mmHg 74%
    11:00 +2°C° 0 mm 1 mps 596 mmHg 77%
    12:00 +3°C° 0 mm 1 mps 596 mmHg 80%
    13:00 +3°C° 0 mm 0 mps 596 mmHg 82%
    14:00 +3°C° 0 mm 1 mps 596 mmHg 79%
    15:00 +2°C° 0 mm 1 mps 595 mmHg 75%
    16:00 0°C° 0 mm 1 mps 595 mmHg 72%
    17:00 0°C° 0 mm 1 mps 595 mmHg 71%
    18:00 -1°C° 0 mm 1 mps 595 mmHg 70%
    19:00 -2°C° 0 mm 1 mps 595 mmHg 69%
    20:00 -2°C° 0 mm 1 mps 595 mmHg 68%
    21:00 -3°C° 0 mm 1 mps 595 mmHg 67%
    22:00 -3°C° 0 mm 1 mps 596 mmHg 67%
    23:00 -5°C° 0 mm 2 mps 596 mmHg 67%

    24 November, Friday

    Time Temperature Precipitation Wind Pressure Humidity
    00:00 -5°C° 0 mm 2 mps 596 mmHg 67%
    01:00 -5°C° 0 mm 2 mps 595 mmHg 66%
    02:00 -5°C° 0 mm 2 mps 595 mmHg 67%
    03:00 -5°C° 0 mm 2 mps 595 mmHg 67%
    04:00 -5°C° 0 mm 2 mps 595 mmHg 67%
    05:00 -5°C° 0 mm 2 mps 595 mmHg 68%
    06:00 -5°C° 0 mm 2 mps 595 mmHg 68%
    07:00 -5°C° 0 mm 2 mps 595 mmHg 68%
    08:00 -4°C° 0 mm 2 mps 596 mmHg 69%
    09:00 -2°C° 0 mm 2 mps 596 mmHg 69%
    10:00 -1°C° 0 mm 2 mps 597 mmHg 70%
    11:00 +1°C° 0 mm 2 mps 597 mmHg 71%
    12:00 +2°C° 0 mm 2 mps 597 mmHg 73%
    13:00 +3°C° 0 mm 2 mps 597 mmHg 75%
    14:00 +2°C° 0 mm 2 mps 597 mmHg 75%
    15:00 +1°C° 0 mm 2 mps 596 mmHg 76%
    16:00 -2°C° 0 mm 2 mps 596 mmHg 76%
    17:00 -2°C° 0 mm 2 mps 595 mmHg 75%
    18:00 -3°C° 0 mm 2 mps 595 mmHg 74%
    19:00 -4°C° 0 mm 2 mps 595 mmHg 73%
    20:00 -4°C° 0 mm 2 mps 595 mmHg 72%
    21:00 -4°C° 0 mm 2 mps 595 mmHg 71%
    22:00 -4°C° 0 mm 2 mps 595 mmHg 70%
    23:00 -4°C° 0 mm 2 mps 595 mmHg 70%

    25 November, Saturday

    Time Temperature Precipitation Wind Pressure Humidity
    00:00 -4°C° 0 mm 2 mps 595 mmHg 70%
    01:00 -3°C° 0 mm 2 mps 595 mmHg 70%
    02:00 -3°C° 0 mm 2 mps 595 mmHg 71%
    03:00 -4°C° 0 mm 2 mps 595 mmHg 72%
    04:00 -4°C° 0 mm 2 mps 595 mmHg 73%
    05:00 -5°C° 0 mm 3 mps 595 mmHg 74%
    06:00 -5°C° 0 mm 3 mps 594 mmHg 75%
    07:00 -5°C° 0 mm 3 mps 594 mmHg 76%
    08:00 -4°C° 0 mm 3 mps 595 mmHg 76%
    09:00 -2°C° 0 mm 3 mps 595 mmHg 76%
    10:00 -1°C° 0 mm 3 mps 595 mmHg 76%
    11:00 0°C° 0 mm 3 mps 595 mmHg 78%
    12:00 +1°C° 0 mm 3 mps 595 mmHg 80%
    13:00 +2°C° 0 mm 3 mps 595 mmHg 82%
    14:00 +1°C° 0 mm 3 mps 594 mmHg 84%
    15:00 0°C° 0 mm 3 mps 594 mmHg 86%
    16:00 -1°C° 0 mm 3 mps 594 mmHg 88%
    17:00 -1°C° 0 mm 3 mps 594 mmHg 90%
    18:00 -2°C° 0 mm 2 mps 594 mmHg 91%
    19:00 -2°C° 0 mm 2 mps 595 mmHg 92%
    20:00 -3°C° 0.2 mm 2 mps 595 mmHg 93%
    21:00 -3°C° 0.2 mm 2 mps 595 mmHg 93%
    22:00 -3°C° 0.2 mm 2 mps 596 mmHg 94%
    23:00 -3°C° 0.4 mm 2 mps 596 mmHg 95%

    26 November, Sunday

    Time Temperature Precipitation Wind Pressure Humidity
    00:00 -2°C° 0.4 mm 1 mps 596 mmHg 95%
    01:00 -2°C° 0.4 mm 1 mps 596 mmHg 96%
    02:00 -2°C° 0.3 mm 1 mps 596 mmHg 96%
    03:00 -2°C° 0.3 mm 1 mps 596 mmHg 96%
    04:00 -3°C° 0.3 mm 1 mps 596 mmHg 96%
    05:00 -3°C° 0.4 mm 1 mps 596 mmHg 95%
    06:00 -3°C° 0.4 mm 1 mps 596 mmHg 95%
    07:00 -3°C° 0.4 mm 1 mps 596 mmHg 95%
    08:00 -3°C° 0.4 mm 1 mps 597 mmHg 93%
    09:00 -3°C° 0.4 mm 1 mps 597 mmHg 92%
    10:00 -5°C° 0.4 mm 2 mps 597 mmHg 90%
    11:00 -5°C° 0.4 mm 2 mps 597 mmHg 89%
    12:00 -5°C° 0.4 mm 2 mps 597 mmHg 87%
    13:00 -5°C° 0.4 mm 2 mps 598 mmHg 86%
    14:00 -5°C° 0.3 mm 2 mps 598 mmHg 87%
    15:00 -6°C° 0.3 mm 2 mps 598 mmHg 88%
    16:00 -7°C° 0.3 mm 2 mps 598 mmHg 89%
    17:00 -8°C° 0 mm 2 mps 598 mmHg 90%
    18:00 -9°C° 0 mm 2 mps 597 mmHg 90%
    19:00 -9°C° 0 mm 1 mps 597 mmHg 91%
    20:00 -10°C° 0 mm 1 mps 597 mmHg 89%
    21:00 -10°C° 0 mm 1 mps 597 mmHg 87%
    22:00 -11°C° 0 mm 1 mps 598 mmHg 86%
    23:00 -11°C° 0 mm 1 mps 597 mmHg 80%
    Show more